Location: Camaret
(48.2753°N, 4.5961°W)
Time: 01:06:54
(UTC+00:00)

Cosmos 968 Rocket - Pass Details

Date: 29 October 2020
Orbit: 741 x 770 km, 74.0° (Epoch: 26 November)

Event Time Altitude Azimuth Distance (km) Brightness Sun altitude
Rises 18:15:53 0° 337° (NNW) 3,241 7.0 -12.5°
Reaches altitude 10° 18:18:16 10° 338° (NNW) 2,307 6.2 -12.9°
Maximum altitude 18:23:31 85° 67° (ENE) 767 3.4 -13.8°
Drops below altitude 10° 18:28:41 10° 157° (SSE) 2,271 5.8 -14.6°
Sets 18:31:01 0° 158° (SSE) 3,186 6.5 -15.0°
